Terug naar catalogus

OPS 4682 DEB

ActiefPO
NORAD 38396·DEBRIS·🇺🇸 United States

Gelanceerd Apr 3, 1965 vanaf Vandenberg Space Force Base

Loading…

Volgende Passages (komende 24 uur)

TLE

VersSource: Space-Track

Epoch: Sep 14, 2026, 13:19 UTC

1 38396U 65027CZ  26257.55548556  .00000388  00000-0  13003-2 0  9992
2 38396  90.2593  13.4059 0037475 213.3908 146.4849 12.97947897674795

Volg OPS 4682 DEB in realtime met AllMySat

Download on the App Store